[[{"header":{"parameterUnit":"m.s-1","parameterCategory":1,"la1":30.2991,"la2":30.254,"lo1":-89.0895,"lo2":-89.0444,"dy":0.0017,"dx":0.0017,"nx":28,"ny":28,"refTime":"2024-12-01T03:00:00:Z","depth":0,"parameterNumber":2,"parameterNumberName":"U-component_of_WINDS"},"data":[0,0,0,0,0,0,0,0,0,0,0,0,0,0,0,0,0,0,0,0,0,0,0,0,0,0,0,0,0,0,0,0,0,0,0,0,0,0,0,0,0,0,0,0,0,0,0,0,0,0,0,0,0,0,0,0,0,0,2.3623,2.3624,0,2.3703,2.3704,2.3705,2.3717,2.3716,2.3715,2.3714,2.3795,2.3798,2.38,0,0,0,0,0,0,0,0,0,0,0,0,0,2.3479,2.3482,2.3623,2.3624,2.3625,2.3703,2.3704,2.3705,2.3717,2.3716,2.3715,2.3714,2.3794,2.3797,2.3801,0,0,0,0,0,0,0,0,0,0,0,0,0,2.3549,2.3483,2.3623,2.364,2.3643,2.3703,2.3704,2.3705,2.3717,2.3716,2.3715,2.3714,2.3793,2.3797,2.3801,2.3849,0,0,2.3814,2.3816,0,0,0,0,0,0,0,0,2.3545,2.3554,2.3637,2.3639,2.3642,2.3699,2.3683,2.3753,2.3717,2.3689,2.3714,2.3713,2.3764,2.377,2.3788,2.3853,2.3856,2.3814,2.3817,2.3819,2.382,0,0,0,0,0,0,0,2.354,2.3551,2.3655,2.3638,2.3641,2.3644,2.3652,2.3696,2.3731,2.3691,2.3692,2.3701,2.3765,2.3783,2.379,2.3857,2.3814,2.3818,2.3821,2.3822,2.3964,2.3965,0,0,0,0,0,0,2.3532,2.3547,2.3652,2.3657,2.359,2.3647,2.3657,2.3682,2.3731,2.3737,2.3702,2.3702,2.3777,2.3785,2.3792,2.385,2.3819,2.3823,2.3825,2.3963,2.3965,2.3966,0,0,0,0,0,0,2.3529,2.3541,2.3649,2.3602,2.3616,2.3651,2.3678,2.3684,2.3702,2.3739,2.3745,2.3715,2.3776,2.3786,2.3835,2.3853,2.3825,2.3829,2.3962,2.3963,2.3965,2.3967,0,0,0,0,0,0,2.3525,2.354,2.3559,2.3602,2.3618,2.369,2.368,2.3686,2.371,2.371,2.3753,2.3759,2.3776,2.3828,2.3839,2.3859,2.3832,2.396,2.3962,2.3965,2.3965,2.3969,2.3972,0,0,0,0,0,2.352,2.3556,2.356,2.3573,2.3643,2.3691,2.37,2.372,2.3711,2.373,2.3754,2.3757,2.385,2.3833,2.3845,2.3866,2.3959,2.3962,2.3964,2.3964,2.3968,2.3971,0,0,0,0,0,0,2.3514,2.3562,2.3567,2.3619,2.3651,2.3693,2.3717,2.3724,2.3758,2.3757,2.3779,2.3789,2.3836,2.3856,2.3836,2.3915,2.3904,2.3909,2.3899,2.3903,2.3906,2.39,2.3835,0,0,0,0,0,2.3519,2.3555,2.3595,2.3637,2.3653,2.3682,2.3704,2.3716,2.375,2.3764,2.3791,2.3823,2.3859,2.3883,2.3918,2.3969,2.3978,2.399,2.3993,2.3995,2.3999,2.4026,2.4031,2.3975,2.3975,2.3975,0,0,2.3529,2.356,2.3581,2.3636,2.3663,2.3698,2.3693,2.3732,2.3758,2.3769,2.3816,2.3837,2.3875,2.3924,2.3947,2.3943,2.4016,2.3999,2.4,2.4003,2.4029,2.4034,2.4039,2.3977,2.3977,2.3976,0,0,2.3565,2.3593,2.363,2.3657,2.3697,2.3716,2.3725,2.3767,2.3781,2.3828,2.3837,2.3869,2.3931,2.3957,2.3979,2.4025,2.4029,2.4036,2.4051,2.4078,2.4082,2.4086,2.4101,2.4106,2.404,2.404,2.404,0,2.3573,2.3627,2.3649,2.3686,2.371,2.3722,2.376,2.3784,2.3834,2.3849,2.3844,2.3922,2.3948,2.4003,2.4014,2.4031,2.4041,2.403,2.408,2.4084,2.4088,2.4102,2.4108,2.4041,2.4041,2.4041,2.404,0,2.3634,2.3672,2.3697,2.3744,2.3771,2.3808,2.3834,2.3859,2.3869,2.3889,2.3936,2.3969,2.401,2.4025,2.4035,2.4081,2.4076,2.4075,2.4064,2.4093,2.4107,2.4113,2.4041,2.4041,2.4041,2.4041,0,0,2.3668,2.3727,2.3735,2.3756,2.3801,2.3831,2.3868,2.3909,2.3929,2.3963,2.3994,2.4047,2.4046,2.407,2.4083,2.4107,2.4139,2.4102,2.4104,2.4107,2.419,2.4189,2.4196,2.4143,2.4144,2.4145,2.4186,0,2.3708,2.3776,2.3796,2.3853,2.3887,2.39,2.3932,2.3963,2.3983,2.4014,2.4036,2.4072,2.4069,2.4083,2.4107,2.413,2.4156,2.4128,2.4171,2.4173,2.416,2.4203,2.4203,2.424,2.4192,2.4193,2.4194,0,2.3764,2.3799,2.3859,2.3899,2.3914,2.3943,2.3982,2.4012,2.4047,2.406,2.4087,2.4098,2.4137,2.4125,2.4179,2.4159,2.4179,2.4193,2.4195,2.4198,2.4184,2.4206,2.4253,2.4258,2.4203,2.4202,2.4202,0,2.3781,2.3843,2.3886,2.3904,2.3952,2.3972,2.3993,2.4027,2.405,2.4084,2.4099,2.4137,2.4158,2.4187,2.4208,2.4198,2.4259,2.4249,2.4269,2.4269,2.4281,2.4279,2.4329,2.4296,2.4296,2.4296,2.4295,0,2.3823,2.3859,2.3894,2.3921,2.3961,2.3984,2.4023,2.4045,2.4075,2.4105,2.4119,2.4147,2.4174,2.4205,2.4223,2.4263,2.4273,2.4284,2.4287,2.4281,2.428,2.4293,2.429,2.4297,2.4297,2.4296,2.4296,0,2.3848,2.3874,2.3922,2.3963,2.3974,2.4002,2.4037,2.4063,2.4083,2.4122,2.4132,2.4164,2.4202,2.4226,2.4275,2.4286,2.433,2.4334,2.4318,2.432,2.4338,2.4335,2.4396,2.4405,2.4367,2.4368,2.4368,0,2.3873,2.39,2.3945,2.3966,2.3987,2.4022,2.4045,2.4069,2.4093,2.4134,2.4155,2.4194,2.4226,2.4286,2.4313,2.435,2.4354,2.4373,2.4359,2.4352,2.4352,2.4349,2.4352,2.4374,2.4375,2.4375,2.4375,0,2.3913,2.3924,2.3957,2.3995,2.4023,2.4054,2.4085,2.4102,2.4131,2.4157,2.4196,2.4221,2.427,2.4308,2.4347,2.4368,2.4376,2.4379,2.4386,2.4379,2.4368,2.4373,2.4322,2.4377,2.4377,2.4377,2.4377,2.4377,2.3937,2.3962,2.3997,2.4033,2.4059,2.4088,2.4114,2.4137,2.417,2.4212,2.4224,2.4265,2.4298,2.4352,2.4374,2.4405,2.4403,2.4412,2.4414,2.4416,2.4415,2.4364,2.4413,2.4413,2.4413,2.4413,2.4413,0,2.3977,2.4,2.4033,2.4076,2.4105,2.411,2.4145,2.4168,2.4203,2.4234,2.4266,2.431,2.4347,2.4377,2.4415,2.4434,2.4439,2.4443,2.4441,2.4445,2.4416,2.4406,2.4439,2.4439,2.4439,2.4439,2.4439,2.4439,2.4,2.4042,2.4057,2.4111,2.4134,2.4174,2.4193,2.4219,2.4244,2.4292,2.4323,2.4343,2.4373,2.4413,2.4447,2.4455,2.4467,2.4471,2.4479,2.4451,2.4448,2.4445,2.4435,2.4474,2.4474,2.4506,2.4506,2.4506]},{"header":{"parameterUnit":"m.s-1","parameterCategory":1,"la1":30.2991,"la2":30.254,"lo1":-89.0895,"lo2":-89.0444,"dy":0.0017,"dx":0.0017,"nx":28,"ny":28,"refTime":"2024-12-01T03:00:00:Z","depth":0,"parameterNumber":3,"parameterNumberName":"V-component_of_WINDS"},"data":[0,0,0,0,0,0,0,0,0,0,0,0,0,0,0,0,0,0,0,0,0,0,0,0,0,0,0,0,0,0,0,0,0,0,0,0,0,0,0,0,0,0,0,0,0,0,0,0,0,0,0,0,0,0,0,0,0,0,-0.9194,-0.9194,0,-0.9237,-0.9237,-0.9237,-0.9251,-0.9251,-0.925,-0.925,-0.9293,-0.9294,-0.9296,0,0,0,0,0,0,0,0,0,0,0,0,0,-0.9122,-0.9123,-0.9193,-0.9194,-0.9195,-0.9236,-0.9237,-0.9238,-0.9251,-0.9251,-0.925,-0.925,-0.9293,-0.9294,-0.9296,0,0,0,0,0,0,0,0,0,0,0,0,0,-0.9158,-0.9124,-0.9193,-0.9206,-0.9208,-0.9236,-0.9237,-0.9238,-0.9251,-0.9251,-0.925,-0.925,-0.9292,-0.9294,-0.9296,-0.9314,0,0,-0.9302,-0.9303,0,0,0,0,0,0,0,0,-0.9156,-0.9161,-0.9204,-0.9205,-0.9207,-0.9238,-0.9228,-0.9263,-0.9251,-0.9234,-0.925,-0.925,-0.9275,-0.9278,-0.9287,-0.9316,-0.9318,-0.9302,-0.9303,-0.9304,-0.9305,0,0,0,0,0,0,0,-0.9153,-0.9159,-0.921,-0.9204,-0.9207,-0.921,-0.9214,-0.9234,-0.9256,-0.9236,-0.9237,-0.9242,-0.9276,-0.9285,-0.9288,-0.9319,-0.9302,-0.9304,-0.9305,-0.9306,-0.9367,-0.9367,0,0,0,0,0,0,-0.9149,-0.9157,-0.9209,-0.9212,-0.918,-0.9211,-0.9216,-0.9228,-0.9256,-0.926,-0.9242,-0.9242,-0.9282,-0.9286,-0.929,-0.9314,-0.9304,-0.9306,-0.9307,-0.9366,-0.9367,-0.9367,0,0,0,0,0,0,-0.9147,-0.9153,-0.9207,-0.9185,-0.9192,-0.9213,-0.9226,-0.9229,-0.9239,-0.926,-0.9264,-0.9248,-0.9282,-0.9287,-0.9308,-0.9315,-0.9307,-0.9309,-0.9366,-0.9366,-0.9367,-0.9362,0,0,0,0,0,0,-0.9145,-0.9153,-0.916,-0.9185,-0.9193,-0.9226,-0.9226,-0.923,-0.9242,-0.9243,-0.9267,-0.927,-0.9282,-0.9305,-0.931,-0.9318,-0.931,-0.9365,-0.9366,-0.9367,-0.9361,-0.9362,-0.9363,0,0,0,0,0,-0.9143,-0.9156,-0.916,-0.9167,-0.9202,-0.9226,-0.9231,-0.9244,-0.9243,-0.925,-0.9264,-0.927,-0.9314,-0.9307,-0.9313,-0.9321,-0.9365,-0.9366,-0.9367,-0.9361,-0.9362,-0.9363,0,0,0,0,0,0,-0.9131,-0.916,-0.9165,-0.9187,-0.9204,-0.9228,-0.9238,-0.9244,-0.9262,-0.9262,-0.9277,-0.9282,-0.9303,-0.9314,-0.9307,-0.9341,-0.934,-0.9342,-0.9333,-0.9334,-0.9335,-0.9332,-0.9312,0,0,0,0,0,-0.9132,-0.9149,-0.9172,-0.919,-0.9198,-0.9217,-0.9227,-0.9236,-0.9255,-0.9262,-0.9277,-0.9295,-0.9313,-0.9324,-0.9342,-0.9363,-0.9369,-0.9372,-0.9372,-0.9373,-0.9374,-0.9387,-0.9389,-0.937,-0.937,-0.937,0,0,-0.9132,-0.915,-0.9159,-0.9188,-0.9202,-0.922,-0.9223,-0.924,-0.9254,-0.9264,-0.9286,-0.9298,-0.9318,-0.934,-0.9351,-0.935,-0.9381,-0.9374,-0.9374,-0.9376,-0.9389,-0.939,-0.9392,-0.9371,-0.9371,-0.9371,0,0,-0.9142,-0.9157,-0.9173,-0.9188,-0.921,-0.9222,-0.9226,-0.925,-0.9258,-0.9281,-0.9289,-0.9305,-0.9335,-0.935,-0.9361,-0.9377,-0.9383,-0.9382,-0.9386,-0.9398,-0.94,-0.9401,-0.9408,-0.941,-0.9384,-0.9384,-0.9384,0,-0.914,-0.9166,-0.9181,-0.9199,-0.9211,-0.9222,-0.9239,-0.9253,-0.9279,-0.9287,-0.9287,-0.9326,-0.934,-0.9366,-0.937,-0.9379,-0.9384,-0.938,-0.9398,-0.94,-0.9402,-0.9408,-0.941,-0.9384,-0.9384,-0.9384,-0.9384,0,-0.9163,-0.9181,-0.9192,-0.9218,-0.9231,-0.9249,-0.9266,-0.9278,-0.9286,-0.9298,-0.9321,-0.9339,-0.936,-0.9367,-0.9375,-0.9394,-0.9394,-0.9395,-0.9394,-0.9403,-0.9409,-0.9412,-0.9384,-0.9384,-0.9384,-0.9384,0,0,-0.9167,-0.9201,-0.9205,-0.9217,-0.9242,-0.9257,-0.9275,-0.9297,-0.9307,-0.9325,-0.934,-0.9366,-0.9369,-0.9381,-0.9391,-0.9402,-0.9414,-0.9402,-0.9403,-0.9404,-0.9438,-0.9437,-0.9439,-0.9418,-0.9419,-0.9419,-0.9436,0,-0.918,-0.9213,-0.9227,-0.9253,-0.9271,-0.9282,-0.9298,-0.9315,-0.9327,-0.9344,-0.9357,-0.9375,-0.9377,-0.9385,-0.9396,-0.941,-0.9421,-0.9409,-0.9433,-0.9434,-0.9428,-0.9442,-0.9441,-0.9456,-0.9439,-0.9439,-0.944,0,-0.92,-0.9219,-0.9247,-0.9271,-0.9279,-0.9293,-0.9315,-0.933,-0.935,-0.9358,-0.9373,-0.9382,-0.9402,-0.9399,-0.9426,-0.9418,-0.9428,-0.9437,-0.9438,-0.9441,-0.9437,-0.9446,-0.9461,-0.9464,-0.9443,-0.9443,-0.9443,0,-0.9201,-0.9233,-0.9254,-0.9264,-0.9293,-0.9303,-0.9315,-0.9335,-0.9347,-0.9366,-0.9374,-0.9395,-0.9406,-0.9422,-0.9437,-0.9433,-0.9463,-0.9461,-0.947,-0.947,-0.9476,-0.9476,-0.9494,-0.9482,-0.9482,-0.9482,-0.9482,0,-0.9214,-0.9231,-0.9255,-0.9268,-0.9288,-0.9304,-0.9323,-0.9336,-0.9353,-0.9369,-0.938,-0.9395,-0.9413,-0.943,-0.9441,-0.9463,-0.9467,-0.9475,-0.9478,-0.9474,-0.9473,-0.9481,-0.9481,-0.9483,-0.9483,-0.9482,-0.9482,0,-0.9219,-0.9235,-0.9259,-0.9285,-0.9291,-0.9305,-0.9326,-0.934,-0.9353,-0.9373,-0.9378,-0.9399,-0.9419,-0.9436,-0.9462,-0.947,-0.9493,-0.9495,-0.9486,-0.9488,-0.9496,-0.9496,-0.9521,-0.9525,-0.951,-0.951,-0.951,0,-0.9227,-0.924,-0.9267,-0.9279,-0.9291,-0.931,-0.9323,-0.9339,-0.9352,-0.9377,-0.9387,-0.9409,-0.9427,-0.946,-0.9477,-0.9498,-0.9501,-0.9509,-0.9505,-0.9501,-0.9502,-0.9502,-0.9503,-0.9509,-0.951,-0.951,-0.951,0,-0.9239,-0.9247,-0.9266,-0.9287,-0.9303,-0.9321,-0.9339,-0.9348,-0.9367,-0.9381,-0.9403,-0.9417,-0.9445,-0.9467,-0.949,-0.9502,-0.9509,-0.9511,-0.9514,-0.9511,-0.9505,-0.9509,-0.9488,-0.951,-0.951,-0.951,-0.951,-0.951,-0.9246,-0.9259,-0.928,-0.9301,-0.9316,-0.9333,-0.9347,-0.9362,-0.938,-0.9405,-0.9413,-0.9436,-0.9456,-0.9487,-0.95,-0.9518,-0.9519,-0.9523,-0.9525,-0.9526,-0.9526,-0.9502,-0.9522,-0.9522,-0.9522,-0.9522,-0.9522,0,-0.926,-0.9274,-0.9293,-0.9318,-0.9335,-0.934,-0.9361,-0.9374,-0.9394,-0.9412,-0.943,-0.9456,-0.9477,-0.9496,-0.9518,-0.9529,-0.9533,-0.9534,-0.9534,-0.9537,-0.9524,-0.9519,-0.9531,-0.9531,-0.9531,-0.9531,-0.9531,-0.9531,-0.9269,-0.9291,-0.9302,-0.9332,-0.9346,-0.9369,-0.938,-0.9396,-0.9411,-0.9438,-0.9456,-0.9469,-0.9488,-0.9512,-0.9531,-0.9536,-0.9544,-0.9545,-0.9551,-0.9539,-0.9538,-0.9537,-0.9532,-0.9547,-0.9547,-0.9563,-0.9563,-0.9563]}]]